TimeCST,TemperatureF,Dew PointF,Humidity,Sea Level PressureIn,VisibilityMPH,Wind Direction,Wind SpeedMPH,Gust SpeedMPH,PrecipitationIn,Events,Conditions,WindDirDegrees,DateUTC
12:34 AM,35.6,35.6,100,29.66,5.0,WNW,11.5,-,N/A,,Clear,300,2011-11-26 06:34:00
12:54 AM,35.6,33.8,93,29.67,7.0,WNW,12.7,-,N/A,,Scattered Clouds,300,2011-11-26 06:54:00
1:35 AM,37.4,33.8,87,29.69,10.0,NW,16.1,-,N/A,,Overcast,310,2011-11-26 07:35:00
1:54 AM,37.4,33.8,87,29.70,10.0,WNW,16.1,20.7,N/A,,Overcast,300,2011-11-26 07:54:00
2:15 AM,35.6,33.8,93,29.70,10.0,NW,17.3,-,N/A,,Overcast,310,2011-11-26 08:15:00
2:35 AM,35.6,33.8,93,29.71,10.0,NW,16.1,26.5,N/A,,Overcast,310,2011-11-26 08:35:00
2:55 AM,35.6,33.8,93,29.73,10.0,NW,13.8,23.0,N/A,,Overcast,310,2011-11-26 08:55:00
3:14 AM,35.6,32.0,87,29.74,10.0,NW,18.4,24.2,N/A,,Overcast,310,2011-11-26 09:14:00
3:35 AM,35.6,32.0,87,29.74,10.0,NW,17.3,23.0,N/A,,Overcast,310,2011-11-26 09:35:00
3:55 AM,35.6,32.0,87,29.75,10.0,NW,19.6,24.2,N/A,,Overcast,310,2011-11-26 09:55:00
4:34 AM,33.8,32.0,93,29.78,10.0,NW,21.9,31.1,N/A,,Overcast,320,2011-11-26 10:34:00
4:54 AM,33.8,32.0,93,29.79,10.0,NW,23.0,27.6,N/A,,Overcast,310,2011-11-26 10:54:00
5:15 AM,33.8,32.0,93,29.80,10.0,NW,24.2,29.9,N/A,,Overcast,320,2011-11-26 11:15:00
5:35 AM,33.8,32.0,93,29.81,10.0,NW,23.0,34.5,N/A,,Overcast,320,2011-11-26 11:35:00
5:54 AM,33.8,32.0,93,29.82,10.0,NW,24.2,28.8,N/A,,Overcast,320,2011-11-26 11:54:00
6:15 AM,33.8,32.0,93,29.83,10.0,NW,24.2,28.8,N/A,,Overcast,320,2011-11-26 12:15:00
6:55 AM,33.8,32.0,93,29.86,10.0,NW,23.0,31.1,N/A,,Overcast,320,2011-11-26 12:55:00
7:15 AM,33.8,32.0,93,29.88,10.0,NW,21.9,33.4,N/A,,Overcast,320,2011-11-26 13:15:00
7:35 AM,33.8,32.0,93,29.89,10.0,NW,24.2,29.9,N/A,,Overcast,310,2011-11-26 13:35:00
7:55 AM,33.8,30.2,87,29.91,10.0,NW,25.3,32.2,N/A,,Overcast,320,2011-11-26 13:55:00
8:15 AM,33.8,30.2,87,29.92,10.0,NW,26.5,34.5,N/A,,Overcast,320,2011-11-26 14:15:00
8:35 AM,33.8,30.2,87,29.93,10.0,NW,24.2,33.4,N/A,,Overcast,320,2011-11-26 14:35:00
8:55 AM,33.8,30.2,87,29.94,10.0,NW,28.8,35.7,N/A,,Overcast,320,2011-11-26 14:55:00
9:15 AM,35.6,30.2,81,29.95,10.0,NW,24.2,33.4,N/A,,Overcast,320,2011-11-26 15:15:00
9:34 AM,35.6,30.2,81,29.95,10.0,NW,25.3,34.5,N/A,,Overcast,320,2011-11-26 15:34:00
10:15 AM,35.6,32.0,87,29.97,10.0,NNW,21.9,32.2,N/A,,Overcast,330,2011-11-26 16:15:00
10:34 AM,35.6,32.0,87,29.98,10.0,NW,24.2,32.2,N/A,,Overcast,320,2011-11-26 16:34:00
10:54 AM,35.6,32.0,87,29.99,10.0,NNW,26.5,33.4,N/A,,Overcast,330,2011-11-26 16:54:00
11:14 AM,35.6,32.0,87,29.99,10.0,NNW,21.9,36.8,N/A,,Overcast,330,2011-11-26 17:14:00
11:35 AM,35.6,33.8,93,29.99,7.0,NW,21.9,28.8,N/A,,Light Drizzle,320,2011-11-26 17:35:00
11:55 AM,35.6,33.8,93,30.00,4.0,NW,23.0,29.9,N/A,Snow,Light Snow,310,2011-11-26 17:55:00
12:14 PM,35.6,33.8,93,30.01,4.0,NW,25.3,31.1,N/A,Snow,Light Snow,320,2011-11-26 18:14:00
12:34 PM,33.8,32.0,93,30.01,4.0,NW,31.1,36.8,N/A,Snow,Light Snow,320,2011-11-26 18:34:00
12:54 PM,33.8,30.2,87,30.02,7.0,NW,27.6,36.8,N/A,,Overcast,320,2011-11-26 18:54:00
1:15 PM,33.8,30.2,87,30.02,10.0,NW,25.3,34.5,N/A,,Overcast,320,2011-11-26 19:15:00
1:35 PM,35.6,30.2,81,30.03,10.0,NW,25.3,34.5,N/A,,Overcast,320,2011-11-26 19:35:00
1:55 PM,35.6,28.4,75,30.03,10.0,NW,26.5,35.7,N/A,,Overcast,320,2011-11-26 19:55:00
2:15 PM,35.6,30.2,81,30.04,10.0,NNW,23.0,38.0,N/A,,Overcast,330,2011-11-26 20:15:00
2:35 PM,35.6,30.2,81,30.05,10.0,NNW,25.3,33.4,N/A,,Overcast,330,2011-11-26 20:35:00
2:55 PM,35.6,30.2,81,30.06,10.0,NNW,23.0,33.4,N/A,,Overcast,330,2011-11-26 20:55:00
3:15 PM,35.6,30.2,81,30.07,10.0,NNW,21.9,29.9,N/A,,Overcast,330,2011-11-26 21:15:00
3:55 PM,35.6,30.2,81,30.10,10.0,NNW,21.9,33.4,N/A,,Overcast,330,2011-11-26 21:55:00
4:14 PM,35.6,30.2,81,30.11,10.0,NW,24.2,31.1,N/A,,Overcast,320,2011-11-26 22:14:00
4:34 PM,35.6,30.2,81,30.12,10.0,NW,18.4,-,N/A,,Overcast,320,2011-11-26 22:34:00
4:54 PM,35.6,30.2,81,30.12,10.0,NW,23.0,33.4,N/A,,Overcast,320,2011-11-26 22:54:00
5:15 PM,35.6,30.2,81,30.14,10.0,NW,17.3,27.6,N/A,,Overcast,320,2011-11-26 23:15:00
5:35 PM,35.6,30.2,81,30.15,10.0,NNW,18.4,32.2,N/A,,Overcast,330,2011-11-26 23:35:00
5:54 PM,35.6,30.2,81,30.15,10.0,NW,19.6,32.2,N/A,,Overcast,320,2011-11-26 23:54:00
6:14 PM,35.6,28.4,75,30.16,10.0,NNW,19.6,26.5,N/A,,Overcast,330,2011-11-27 00:14:00
6:34 PM,35.6,26.6,70,30.16,10.0,NNW,21.9,33.4,N/A,,Overcast,330,2011-11-27 00:34:00
6:55 PM,35.6,26.6,70,30.17,10.0,NNW,26.5,36.8,N/A,,Overcast,340,2011-11-27 00:55:00
7:15 PM,35.6,26.6,70,30.17,10.0,NNW,20.7,32.2,N/A,,Overcast,330,2011-11-27 01:15:00
7:35 PM,35.6,26.6,70,30.18,10.0,NNW,23.0,34.5,N/A,,Overcast,330,2011-11-27 01:35:00
7:54 PM,35.6,26.6,70,30.18,10.0,NNW,27.6,36.8,N/A,,Overcast,330,2011-11-27 01:54:00
8:15 PM,35.6,26.6,70,30.18,10.0,NNW,21.9,31.1,N/A,,Overcast,330,2011-11-27 02:15:00
8:34 PM,35.6,26.6,70,30.18,10.0,NNW,19.6,28.8,N/A,,Overcast,330,2011-11-27 02:34:00
8:54 PM,33.8,28.4,81,30.19,10.0,NW,17.3,25.3,N/A,,Overcast,320,2011-11-27 02:54:00
9:14 PM,33.8,28.4,81,30.19,10.0,NNW,21.9,27.6,N/A,,Overcast,330,2011-11-27 03:14:00
9:55 PM,33.8,28.4,81,30.20,10.0,NW,19.6,25.3,N/A,,Overcast,320,2011-11-27 03:55:00
10:35 PM,33.8,26.6,75,30.20,10.0,NW,17.3,25.3,N/A,,Overcast,320,2011-11-27 04:35:00
10:55 PM,33.8,26.6,75,30.20,10.0,NW,19.6,23.0,N/A,,Overcast,310,2011-11-27 04:55:00
11:15 PM,33.8,26.6,75,30.21,10.0,NW,17.3,21.9,N/A,,Overcast,320,2011-11-27 05:15:00
11:55 PM,32.0,26.6,80,30.22,10.0,NNW,19.6,25.3,N/A,,Overcast,330,2011-11-27 05:55:00